Weather History for Resia Pass, Italy

Change the Weather History Date:

Wednesday, March 20, 2013

  Actual Average Record
Temperature  
Mean Temperature 27 °F -  
Max Temperature 35 °F 44 °F 60 °F (2005)
Min Temperature 19 °F 26 °F 17 °F (2006)
Degree Days  
Heating Degree Days 38    
Moisture  
Dew Point 22 °F    
Average Humidity 74    
Maximum Humidity 93    
Minimum Humidity 48    
Precipitation  
Precipitation 0.00 in - - ()
Sea Level Pressure  
Sea Level Pressure 29.61 in    
Wind  
Wind Speed 4 mph ()    
Max Wind Speed 9 mph    
Max Gust Speed -    
Visibility 5.8 miles    
Events Snow    
Averages and records for this station are not official NWS values.
T = Trace of Precipitation, MM = Missing Value Source: Averaged Metar Reports

Daily Weather History Graph

Daily Weather History Graph

Search for Another Location

Airport:

Trip Planner

Search our weather history database for the weather conditions in past years. The results will help you decide how hot, cold, wet, or windy it might be!

Date:

Astronomy

Mar. 20, 2013 Rise Set
Actual Time 6:21 AM CET 6:30 PM CET
Civil Twilight 5:50 AM CET 7:00 PM CET
Nautical Twilight 5:15 AM CET 7:36 PM CET
Astronomical Twilight 4:38 AM CET 8:13 PM CET
Moon 11:30 AM CET 2:08 AM CET
Length of Visible Light 13h 10m
Length of Day
12h 09m
First Quarter, 57% of the Moon is Illuminated
Mar 20
First Quarter
Mar 27
Full
Apr 3
Last Quarter
Apr 10
New
Apr 18
First Quarter

Hourly Weather History & Observations

Time (CET) Temp. Windchill Dew Point Humidity Pressure Visibility Wind Dir Wind Speed Gust Speed Precip Events Conditions
1:55 AM 21.2 °F - 15.8 °F 80% 29.56 in - Calm Calm - N/A   Clear
5:55 AM 19.4 °F - 17.6 °F 93% 29.56 in 6.2 mi North 2.3 mph - N/A   Mostly Cloudy
6:55 AM 19.4 °F - 17.6 °F 93% 29.56 in 6.2 mi Calm Calm - N/A   Mostly Cloudy
7:55 AM 24.8 °F 19.1 °F 21.2 °F 86% 29.56 in 6.2 mi SSW 4.6 mph - N/A   Mostly Cloudy
8:55 AM 28.4 °F 22.2 °F 21.2 °F 74% 29.59 in 6.2 mi SSW 5.8 mph - N/A   Mostly Cloudy
9:55 AM 30.2 °F 22.6 °F 21.2 °F 69% 29.59 in - SSE 8.1 mph - N/A   Clear
10:55 AM 32.0 °F 24.2 °F 21.2 °F 64% 29.59 in - SSE 9.2 mph - N/A   Clear
11:55 AM 33.8 °F 27.0 °F 21.2 °F 60% 29.59 in - South 8.1 mph - N/A   Clear
12:55 PM 35.6 °F 28.6 °F 19.4 °F 52% 29.59 in - South 9.2 mph - N/A   Clear
1:55 PM 35.6 °F 29.2 °F 17.6 °F 48% 29.59 in - SSE 8.1 mph - N/A   Clear
2:55 PM 35.6 °F 29.2 °F 17.6 °F 48% 29.59 in - SSE 8.1 mph - N/A   Clear
3:55 PM 35.6 °F 30.7 °F 21.2 °F 56% 29.59 in 6.2 mi SSE 5.8 mph - N/A   Partly Cloudy
4:55 PM 33.8 °F 29.6 °F 26.6 °F 75% 29.62 in 6.2 mi SSE 4.6 mph - N/A   Scattered Clouds
5:55 PM 33.8 °F - 30.2 °F 87% 29.62 in 6.2 mi South 2.3 mph - N/A   Overcast
6:55 PM 32.0 °F 26.4 °F 30.2 °F 93% 29.62 in 2.5 mi NNE 5.8 mph - N/A Snow Snow
7:55 PM 32.0 °F 26.4 °F 26.6 °F 80% 29.65 in 5.0 mi NNW 5.8 mph - N/A   Overcast
8:55 PM 32.0 °F 28.7 °F 26.6 °F 80% 29.65 in 6.2 mi North 3.5 mph - N/A   Overcast
9:55 PM 30.2 °F 26.7 °F 26.6 °F 86% 29.65 in 6.2 mi North 3.5 mph - N/A   Overcast
10:55 PM 28.4 °F - 23.0 °F 80% 29.68 in 6.2 mi North 2.3 mph - N/A   Mostly Cloudy
11:55 PM 26.6 °F 21.2 °F 21.2 °F 80% 29.68 in - North 4.6 mph - N/A   Clear